Hourly Data Report for September 23, 2017

TORONTO CITY
ONTARIO

43°40'00.000" N
79°24'00.000" W
112.50 m
6158355
71508
XTO

Download Data

Hourly Data (September 2017)
Hourly Data Report for September 23, 2017
TIME
LST
Temp Definition
°C
Dew Point Definition
°C
Rel Hum Definition
%
Precip. Amount Definition
mm

Wind Dir Definition
10's deg

Wind Spd Definition
km/h
Visibility Definition
km
Stn Press Definition
kPa
Hmdx Definition


Wind Chill Definition


Weather Definition


00:00 19.8 12.0 61 0.0 LegendMM LegendMM   100.50     LegendNANA
01:00 19.5 11.9 61 0.0 LegendMM LegendMM   100.51     LegendNANA
02:00 19.7 11.9 61 0.0 LegendMM LegendMM   100.43     LegendNANA
03:00 19.7 11.5 59 0.0 LegendMM LegendMM   100.44     LegendNANA
04:00 18.9 11.1 61 0.0 LegendMM LegendMM   100.47     LegendNANA
05:00 18.4 11.9 66 0.0 LegendMM LegendMM   100.52     LegendNANA
06:00 18.2 11.5 65 0.0 LegendMM LegendMM   100.58     LegendNANA
07:00 19.2 12.3 64 0.0 LegendMM LegendMM   100.62     LegendNANA
08:00 22.7 13.6 57 0.0 LegendMM LegendMM   100.67 26   LegendNANA
09:00 24.1 14.1 54 0.0 LegendMM LegendMM   100.68 28   LegendNANA
10:00 26.8 14.6 47 0.0 LegendMM LegendMM   100.69 31   LegendNANA
11:00 27.7 14.9 46 0.0 LegendMM LegendMM   100.68 32   LegendNANA
12:00 29.1 15.2 43 0.0 LegendMM LegendMM   100.67 33   LegendNANA
13:00 29.2 13.0 37 0.0 LegendMM LegendMM   100.63 32   LegendNANA
14:00 30.2 14.0 37 0.0 LegendMM LegendMM   100.57 34   LegendNANA
15:00 29.6 14.0 38 0.0 LegendMM LegendMM   100.50 33   LegendNANA
16:00 29.0 14.9 42 0.0 LegendMM LegendMM   100.48 33   LegendNANA
17:00 28.5 15.9 46 0.0 LegendMM LegendMM   100.47 33   LegendNANA
18:00 27.2 16.5 52 0.0 LegendMM LegendMM   100.47 32   LegendNANA
19:00 26.9 17.2 55 0.0 LegendMM LegendMM   100.50 32   LegendNANA
20:00 25.2 18.3 66 0.0 LegendMM LegendMM   100.51 31   LegendNANA
21:00 24.4 18.0 67 0.0 LegendMM LegendMM   100.51 30   LegendNANA
22:00 23.9 18.3 71 0.0 LegendMM LegendMM   100.52 30   LegendNANA
23:00 23.7 17.9 70 0.0 LegendMM LegendMM   100.53 30   LegendNANA

Notes on Data Quality.

Legend

  • E = Estimated
  • M = Missing
  • NA = Not Available*
  • [empty] = Indicates an unobserved value
Date modified: